TimeAKDT,TemperatureF,Dew PointF,Humidity,Sea Level PressureIn,VisibilityMPH,Wind Direction,Wind SpeedMPH,Gust SpeedMPH,PrecipitationIn,Events,Conditions,WindDirDegrees,DateUTC
12:27 AM,51.8,50.0,94,30.20,10.0,West,12.7,-,N/A,,Overcast,270,2013-07-26 08:27:00
12:48 AM,51.8,50.0,94,30.20,10.0,West,11.5,-,N/A,,Overcast,280,2013-07-26 08:48:00
12:53 AM,52.0,50.0,93,30.19,10.0,West,9.2,-,N/A,,Overcast,270,2013-07-26 08:53:00
1:53 AM,51.1,50.0,96,30.19,10.0,West,11.5,-,0.00,,Light Drizzle,280,2013-07-26 09:53:00
2:40 AM,51.8,50.0,94,30.20,4.0,WNW,6.9,-,0.00,,Light Drizzle,290,2013-07-26 10:40:00
2:53 AM,51.1,50.0,96,30.19,8.0,West,6.9,-,0.00,,Light Drizzle,280,2013-07-26 10:53:00
3:16 AM,51.8,50.0,94,30.19,10.0,WNW,5.8,-,0.00,,Overcast,290,2013-07-26 11:16:00
3:53 AM,50.0,50.0,100,30.20,6.0,West,5.8,-,0.00,,Overcast,280,2013-07-26 11:53:00
4:16 AM,51.8,50.0,94,30.20,10.0,West,9.2,-,N/A,,Overcast,270,2013-07-26 12:16:00
4:53 AM,51.1,48.9,92,30.19,10.0,WNW,4.6,-,N/A,,Overcast,300,2013-07-26 12:53:00
5:53 AM,51.1,48.9,92,30.20,10.0,WNW,4.6,-,N/A,,Overcast,290,2013-07-26 13:53:00
6:43 AM,51.8,50.0,94,30.20,1.8,WNW,4.6,-,N/A,,Overcast,290,2013-07-26 14:43:00
6:53 AM,51.1,50.0,96,30.20,1.0,WNW,4.6,-,N/A,,Overcast,290,2013-07-26 14:53:00
7:42 AM,51.8,51.8,100,30.21,2.0,NW,3.5,-,N/A,,Overcast,310,2013-07-26 15:42:00
7:53 AM,52.0,51.1,97,30.20,3.0,NW,3.5,-,N/A,,Overcast,320,2013-07-26 15:53:00
8:12 AM,51.8,51.8,100,30.20,2.0,West,6.9,-,0.00,,Light Drizzle,270,2013-07-26 16:12:00
8:16 AM,53.6,51.8,94,30.20,0.8,West,8.1,-,0.00,,Light Drizzle,280,2013-07-26 16:16:00
8:42 AM,51.8,51.8,100,30.21,1.2,West,10.4,-,0.00,,Light Drizzle,270,2013-07-26 16:42:00
8:53 AM,52.0,51.1,97,30.22,2.0,West,11.5,-,0.00,,Light Drizzle,280,2013-07-26 16:53:00
9:32 AM,51.8,51.8,100,30.22,4.0,West,11.5,-,0.00,,Overcast,270,2013-07-26 17:32:00
9:53 AM,52.0,50.0,93,30.23,4.0,West,11.5,-,0.00,,Overcast,270,2013-07-26 17:53:00
10:01 AM,51.8,50.0,94,30.23,10.0,West,11.5,-,N/A,,Mostly Cloudy,270,2013-07-26 18:01:00
10:28 AM,53.6,51.8,94,30.24,10.0,West,11.5,-,N/A,,Mostly Cloudy,270,2013-07-26 18:28:00
10:53 AM,53.1,51.1,93,30.24,10.0,West,10.4,-,N/A,,Mostly Cloudy,260,2013-07-26 18:53:00
11:53 AM,54.0,51.1,90,30.24,10.0,West,17.3,-,N/A,,Mostly Cloudy,260,2013-07-26 19:53:00
12:53 PM,55.0,52.0,89,30.25,10.0,WSW,12.7,-,N/A,,Mostly Cloudy,250,2013-07-26 20:53:00
1:08 PM,55.4,51.8,88,30.25,10.0,WSW,13.8,-,N/A,,Overcast,250,2013-07-26 21:08:00
1:26 PM,55.4,53.6,94,30.26,10.0,West,17.3,-,N/A,,Mostly Cloudy,260,2013-07-26 21:26:00
1:53 PM,55.9,53.1,90,30.26,10.0,WSW,13.8,-,N/A,,Mostly Cloudy,250,2013-07-26 21:53:00
2:53 PM,57.0,53.1,87,30.26,10.0,WSW,17.3,-,N/A,,Mostly Cloudy,250,2013-07-26 22:53:00
3:53 PM,55.9,53.1,90,30.27,7.0,WSW,17.3,-,N/A,,Mostly Cloudy,250,2013-07-26 23:53:00
4:12 PM,55.4,51.8,88,30.26,3.0,WSW,15.0,-,N/A,,Mostly Cloudy,250,2013-07-27 00:12:00
4:32 PM,55.4,53.6,94,30.27,7.0,WSW,15.0,-,N/A,,Mostly Cloudy,250,2013-07-27 00:32:00
4:53 PM,55.9,52.0,87,30.27,10.0,WSW,13.8,-,N/A,,Mostly Cloudy,240,2013-07-27 00:53:00
5:53 PM,57.0,53.1,87,30.27,10.0,WSW,15.0,-,N/A,,Mostly Cloudy,250,2013-07-27 01:53:00
6:53 PM,55.9,53.1,90,30.27,10.0,West,17.3,-,N/A,,Mostly Cloudy,260,2013-07-27 02:53:00
7:53 PM,55.0,53.1,93,30.27,9.0,WSW,17.3,-,N/A,,Mostly Cloudy,250,2013-07-27 03:53:00
8:53 PM,54.0,53.1,97,30.27,5.0,West,17.3,-,N/A,,Mostly Cloudy,260,2013-07-27 04:53:00
9:53 PM,55.0,53.1,93,30.27,10.0,West,12.7,-,N/A,,Mostly Cloudy,260,2013-07-27 05:53:00
10:53 PM,55.0,52.0,89,30.27,10.0,West,8.1,-,N/A,,Mostly Cloudy,270,2013-07-27 06:53:00
11:53 PM,55.0,53.1,93,30.27,10.0,West,9.2,-,N/A,,Mostly Cloudy,270,2013-07-27 07:53:00